SXBEP LHBP-LDPL

Flight info

Callsign SXBEP
Flight time 1h 28m
Altitude 6500
Route DUNAMO PUSTA SVR SUNOR ODOKA JAP NEMEK LDRI
Aircraft BE60/L-SDFGRY/C

Departure

Time 2026-04-26 18:18
Airport Budapest Liszt Ferenc International Airport (LHBP)

Arrival

Time 2026-04-26 19:46
Airport Pula Airport (LDPL)
Time Latitude Longitude Altitude Speed Heading
2026-04-26 17:43 47.43583 19.25862 478 ft 0 kts 318°
2026-04-26 18:13 47.43585 19.25859 478 ft 4 kts 317°
2026-04-26 18:13 47.43565 19.25804 477 ft 15 kts 184°
2026-04-26 18:13 47.43532 19.25761 475 ft 14 kts 307°
2026-04-26 18:13 47.43533 19.25644 476 ft 21 kts 232°
2026-04-26 18:14 47.43405 19.25467 468 ft 0 kts 218°
2026-04-26 18:14 47.43330 19.25367 463 ft 28 kts 221°
2026-04-26 18:14 47.43173 19.25155 452 ft 26 kts 221°
2026-04-26 18:15 47.43143 19.25120 452 ft 0 kts 209°
2026-04-26 18:15 47.43141 19.25118 452 ft 1 kts 222°
2026-04-26 18:16 47.43105 19.24920 452 ft 9 kts 293°
2026-04-26 18:16 47.43139 19.24857 452 ft 0 kts 312°
2026-04-26 18:17 47.43139 19.24856 452 ft 0 kts 311°
2026-04-26 18:17 47.43259 19.24667 452 ft 62 kts 315°
2026-04-26 18:17 47.43673 19.24026 560 ft 98 kts 314°
2026-04-26 18:18 47.44195 19.23374 935 ft 105 kts 321°
2026-04-26 18:18 47.44743 19.22646 1383 ft 102 kts 295°
2026-04-26 18:18 47.44731 19.21686 1886 ft 94 kts 236°
2026-04-26 18:18 47.44271 19.21052 2131 ft 92 kts 214°
2026-04-26 18:19 47.43740 19.20519 2427 ft 91 kts 215°
2026-04-26 18:19 47.43174 19.20145 2630 ft 100 kts 205°
2026-04-26 18:19 47.42526 19.19696 2639 ft 104 kts 223°
2026-04-26 18:19 47.42112 19.18832 2673 ft 105 kts 242°
2026-04-26 18:20 47.41726 19.17911 2814 ft 105 kts 230°
2026-04-26 18:20 47.41283 19.17162 2950 ft 93 kts 233°
2026-04-26 18:20 47.40890 19.16387 3049 ft 90 kts 237°
2026-04-26 18:20 47.40637 19.15879 3066 ft 97 kts 235°
2026-04-26 18:21 47.40091 19.14805 3262 ft 98 kts 237°
2026-04-26 18:21 47.39703 19.13998 3415 ft 96 kts 237°
2026-04-26 18:21 47.39307 19.13222 3565 ft 98 kts 236°
2026-04-26 18:21 47.38896 19.12352 3637 ft 105 kts 237°
2026-04-26 18:22 47.38471 19.11469 3758 ft 106 kts 236°
2026-04-26 18:22 47.38074 19.10601 3754 ft 100 kts 238°
2026-04-26 18:22 47.37670 19.09791 3807 ft 95 kts 235°
2026-04-26 18:22 47.37292 19.09014 3801 ft 93 kts 237°
2026-04-26 18:23 47.36894 19.08192 3867 ft 104 kts 232°
2026-04-26 18:23 47.36420 19.07298 3975 ft 114 kts 234°
2026-04-26 18:23 47.35918 19.06362 4131 ft 116 kts 231°
2026-04-26 18:23 47.35399 19.05506 4197 ft 110 kts 230°
2026-04-26 18:24 47.34890 19.04678 4270 ft 113 kts 229°
2026-04-26 18:24 47.34303 19.03841 4637 ft 120 kts 223°
2026-04-26 18:24 47.33589 19.02949 4740 ft 150 kts 223°
2026-04-26 18:24 47.32843 19.01814 5013 ft 157 kts 231°
2026-04-26 18:25 47.32175 19.00573 5489 ft 151 kts 236°
2026-04-26 18:25 47.31543 18.99357 6000 ft 146 kts 231°
2026-04-26 18:25 47.30885 18.98194 6332 ft 156 kts 232°
2026-04-26 18:25 47.30100 18.96945 6453 ft 173 kts 226°
2026-04-26 18:26 47.29273 18.95747 6411 ft 162 kts 226°
2026-04-26 18:26 47.28513 18.94606 6314 ft 152 kts 227°
2026-04-26 18:26 47.27792 18.93494 6290 ft 150 kts 228°
2026-04-26 18:26 47.27062 18.92363 6206 ft 153 kts 228°
2026-04-26 18:27 47.26331 18.91218 6136 ft 151 kts 228°
2026-04-26 18:27 47.25653 18.90139 6264 ft 141 kts 230°
2026-04-26 18:27 47.24989 18.89050 6233 ft 145 kts 229°
2026-04-26 18:27 47.24298 18.87979 6254 ft 147 kts 227°
2026-04-26 18:28 47.23533 18.86823 6295 ft 167 kts 228°
2026-04-26 18:28 47.22722 18.85510 6313 ft 180 kts 229°
2026-04-26 18:28 47.21872 18.84100 6329 ft 190 kts 229°
2026-04-26 18:28 47.20966 18.82636 6325 ft 197 kts 229°
2026-04-26 18:29 47.20024 18.81123 6208 ft 201 kts 229°
2026-04-26 18:29 47.19076 18.79636 6194 ft 202 kts 227°
2026-04-26 18:29 47.18091 18.78163 6190 ft 201 kts 226°
2026-04-26 18:29 47.17115 18.76704 6204 ft 201 kts 227°
2026-04-26 18:30 47.16120 18.75254 6143 ft 204 kts 223°
2026-04-26 18:30 47.14987 18.73997 6155 ft 201 kts 218°
2026-04-26 18:30 47.13979 18.72617 6225 ft 197 kts 230°
2026-04-26 18:30 47.13129 18.71049 6261 ft 196 kts 234°
2026-04-26 18:31 47.12316 18.69435 6282 ft 197 kts 236°
2026-04-26 18:31 47.11539 18.67775 6287 ft 198 kts 236°
2026-04-26 18:31 47.10744 18.66123 6292 ft 199 kts 235°
2026-04-26 18:31 47.09916 18.64489 6289 ft 199 kts 233°
2026-04-26 18:32 47.09090 18.62916 6293 ft 189 kts 233°
2026-04-26 18:32 47.08275 18.61359 6290 ft 195 kts 234°
2026-04-26 18:32 47.07452 18.59746 6288 ft 199 kts 234°
2026-04-26 18:32 47.06637 18.58128 6287 ft 201 kts 234°
2026-04-26 18:33 47.05802 18.56481 6288 ft 202 kts 234°
2026-04-26 18:33 47.04954 18.54826 6284 ft 203 kts 234°
2026-04-26 18:33 47.04099 18.53173 6282 ft 203 kts 234°
2026-04-26 18:33 47.03255 18.51535 6285 ft 200 kts 234°
2026-04-26 18:34 47.02420 18.49902 6288 ft 200 kts 234°
2026-04-26 18:34 47.01587 18.48269 6286 ft 199 kts 234°
2026-04-26 18:34 47.00757 18.46648 6286 ft 199 kts 234°
2026-04-26 18:34 46.99927 18.45031 6286 ft 198 kts 234°
2026-04-26 18:35 46.99107 18.43437 6285 ft 198 kts 234°
2026-04-26 18:35 46.98280 18.41827 6287 ft 198 kts 234°
2026-04-26 18:35 46.97451 18.40214 6287 ft 198 kts 234°
2026-04-26 18:35 46.96625 18.38604 6287 ft 198 kts 234°
2026-04-26 18:36 46.95798 18.36993 6288 ft 198 kts 234°
2026-04-26 18:36 46.94970 18.35383 6288 ft 198 kts 234°
2026-04-26 18:36 46.94143 18.33776 6288 ft 198 kts 234°
2026-04-26 18:36 46.93314 18.32167 6285 ft 198 kts 234°
2026-04-26 18:37 46.92764 18.31097 6287 ft 198 kts 234°
2026-04-26 18:37 46.91939 18.29493 6288 ft 197 kts 234°
2026-04-26 18:37 46.90842 18.27359 6289 ft 198 kts 234°
2026-04-26 18:37 46.90012 18.25748 6290 ft 198 kts 234°
2026-04-26 18:38 46.89464 18.24686 6288 ft 198 kts 234°
2026-04-26 18:38 46.88631 18.23071 6289 ft 198 kts 234°
2026-04-26 18:38 46.87802 18.21461 6288 ft 198 kts 234°
2026-04-26 18:38 46.86970 18.19845 6287 ft 198 kts 234°
2026-04-26 18:39 46.86138 18.18233 6287 ft 198 kts 234°
2026-04-26 18:39 46.85318 18.16646 6286 ft 198 kts 234°
2026-04-26 18:39 46.84487 18.15036 6287 ft 198 kts 234°
2026-04-26 18:39 46.83658 18.13427 6287 ft 198 kts 234°
2026-04-26 18:40 46.82827 18.11820 6286 ft 198 kts 234°
2026-04-26 18:40 46.81991 18.10223 6284 ft 198 kts 233°
2026-04-26 18:40 46.81147 18.08632 6287 ft 198 kts 233°
2026-04-26 18:40 46.80310 18.07062 6291 ft 198 kts 233°
2026-04-26 18:41 46.79461 18.05472 6290 ft 198 kts 233°
2026-04-26 18:41 46.78613 18.03884 6290 ft 198 kts 233°
2026-04-26 18:41 46.77768 18.02303 6288 ft 199 kts 233°
2026-04-26 18:41 46.76916 18.00707 6287 ft 199 kts 233°
2026-04-26 18:42 46.76070 17.99119 6288 ft 199 kts 233°
2026-04-26 18:42 46.75232 17.97538 6286 ft 198 kts 235°
2026-04-26 18:42 46.74581 17.95779 6286 ft 197 kts 246°
2026-04-26 18:42 46.74033 17.93943 6287 ft 197 kts 248°
2026-04-26 18:43 46.73515 17.92095 6287 ft 197 kts 249°
2026-04-26 18:43 46.73006 17.90235 6289 ft 197 kts 249°
2026-04-26 18:43 46.72503 17.88372 6289 ft 198 kts 249°
2026-04-26 18:43 46.72000 17.86507 6289 ft 198 kts 249°
2026-04-26 18:44 46.71497 17.84641 6286 ft 198 kts 249°
2026-04-26 18:44 46.70997 17.82776 6286 ft 197 kts 249°
2026-04-26 18:44 46.70495 17.80908 6287 ft 197 kts 249°
2026-04-26 18:44 46.69994 17.79044 6285 ft 197 kts 249°
2026-04-26 18:45 46.69500 17.77209 6288 ft 197 kts 249°
2026-04-26 18:45 46.69000 17.75351 6285 ft 197 kts 249°
2026-04-26 18:45 46.68501 17.73490 6286 ft 197 kts 249°
2026-04-26 18:45 46.68002 17.71634 6286 ft 197 kts 249°
2026-04-26 18:46 46.67502 17.69778 6285 ft 197 kts 249°
2026-04-26 18:46 46.67001 17.67914 6286 ft 198 kts 249°
2026-04-26 18:46 46.66499 17.66050 6281 ft 198 kts 249°
2026-04-26 18:46 46.65997 17.64186 6280 ft 198 kts 249°
2026-04-26 18:47 46.65493 17.62320 6279 ft 198 kts 249°
2026-04-26 18:47 46.64990 17.60456 6278 ft 198 kts 249°
2026-04-26 18:47 46.64486 17.58592 6278 ft 198 kts 249°
2026-04-26 18:47 46.63991 17.56753 6278 ft 197 kts 249°
2026-04-26 18:48 46.63483 17.54895 6278 ft 197 kts 246°
2026-04-26 18:48 46.62785 17.53178 6278 ft 197 kts 237°
2026-04-26 18:48 46.62002 17.51534 6278 ft 198 kts 235°
2026-04-26 18:48 46.61191 17.49908 6277 ft 198 kts 234°
2026-04-26 18:49 46.60375 17.48300 6277 ft 198 kts 234°
2026-04-26 18:49 46.59552 17.46692 6278 ft 198 kts 234°
2026-04-26 18:49 46.58739 17.45110 6280 ft 198 kts 234°
2026-04-26 18:49 46.57911 17.43503 6279 ft 198 kts 234°
2026-04-26 18:50 46.57083 17.41900 6279 ft 198 kts 234°
2026-04-26 18:50 46.56258 17.40302 6279 ft 198 kts 234°
2026-04-26 18:50 46.55432 17.38704 6279 ft 198 kts 234°
2026-04-26 18:50 46.54604 17.37103 6282 ft 198 kts 234°
2026-04-26 18:51 46.53759 17.35557 6279 ft 198 kts 226°
2026-04-26 18:51 46.52735 17.34209 6280 ft 199 kts 221°
2026-04-26 18:51 46.51667 17.32933 6280 ft 199 kts 220°
2026-04-26 18:51 46.50581 17.31679 6279 ft 199 kts 219°
2026-04-26 18:52 46.49490 17.30436 6279 ft 199 kts 219°
2026-04-26 18:52 46.48398 17.29200 6278 ft 199 kts 219°
2026-04-26 18:52 46.47319 17.27982 6281 ft 199 kts 219°
2026-04-26 18:52 46.46361 17.26551 6279 ft 198 kts 233°
2026-04-26 18:53 46.45553 17.24933 6279 ft 198 kts 236°
2026-04-26 18:53 46.44785 17.23276 6278 ft 198 kts 237°
2026-04-26 18:53 46.44031 17.21604 6279 ft 198 kts 238°
2026-04-26 18:53 46.43284 17.19929 6280 ft 198 kts 238°
2026-04-26 18:54 46.42538 17.18250 6277 ft 198 kts 238°
2026-04-26 18:54 46.41793 17.16572 6275 ft 197 kts 238°
2026-04-26 18:54 46.41059 17.14914 6278 ft 197 kts 238°
2026-04-26 18:54 46.40317 17.13238 6277 ft 197 kts 238°
2026-04-26 18:55 46.39572 17.11563 6279 ft 197 kts 238°
2026-04-26 18:55 46.38830 17.09890 6281 ft 197 kts 238°
2026-04-26 18:55 46.38088 17.08218 6281 ft 198 kts 238°
2026-04-26 18:55 46.37342 17.06536 6282 ft 198 kts 238°
2026-04-26 18:56 46.36595 17.04858 6282 ft 198 kts 238°
2026-04-26 18:56 46.35847 17.03175 6281 ft 199 kts 238°
2026-04-26 18:56 46.35098 17.01493 6280 ft 199 kts 238°
2026-04-26 18:56 46.34358 16.99827 6278 ft 199 kts 238°
2026-04-26 18:57 46.33610 16.98144 6277 ft 198 kts 238°
2026-04-26 18:57 46.33114 16.97031 6277 ft 198 kts 238°
2026-04-26 18:57 46.32114 16.94782 6278 ft 198 kts 238°
2026-04-26 18:57 46.31377 16.93124 6277 ft 198 kts 238°
2026-04-26 18:58 46.30634 16.91455 6279 ft 198 kts 238°
2026-04-26 18:58 46.29890 16.89784 6278 ft 198 kts 238°
2026-04-26 18:58 46.29145 16.88112 6279 ft 198 kts 238°
2026-04-26 18:58 46.28399 16.86438 6279 ft 198 kts 238°
2026-04-26 18:59 46.27653 16.84766 6279 ft 198 kts 238°
2026-04-26 18:59 46.26905 16.83092 6279 ft 198 kts 238°
2026-04-26 18:59 46.26157 16.81421 6278 ft 198 kts 238°
2026-04-26 18:59 46.25421 16.79774 6278 ft 198 kts 238°
2026-04-26 19:00 46.24674 16.78105 6280 ft 197 kts 238°
2026-04-26 19:00 46.23925 16.76439 6280 ft 198 kts 236°
2026-04-26 19:00 46.23112 16.74838 6278 ft 198 kts 233°
2026-04-26 19:00 46.22267 16.73275 6292 ft 197 kts 232°
2026-04-26 19:01 46.21411 16.71722 6299 ft 197 kts 232°
2026-04-26 19:01 46.20549 16.70175 6302 ft 198 kts 232°
2026-04-26 19:01 46.19683 16.68628 6303 ft 198 kts 232°
2026-04-26 19:01 46.18828 16.67105 6303 ft 198 kts 232°
2026-04-26 19:02 46.17960 16.65561 6305 ft 198 kts 232°
2026-04-26 19:02 46.17089 16.64013 6306 ft 198 kts 232°
2026-04-26 19:02 46.16222 16.62469 6305 ft 198 kts 232°
2026-04-26 19:02 46.15645 16.61447 6302 ft 198 kts 232°
2026-04-26 19:03 46.14460 16.59414 6300 ft 198 kts 230°
2026-04-26 19:03 46.13578 16.57935 6304 ft 198 kts 230°
2026-04-26 19:03 46.12661 16.56406 6304 ft 198 kts 230°
2026-04-26 19:03 46.11753 16.54906 6306 ft 198 kts 230°
2026-04-26 19:04 46.10858 16.53428 6303 ft 198 kts 230°
2026-04-26 19:04 46.09950 16.51930 6309 ft 198 kts 230°
2026-04-26 19:04 46.09042 16.50433 6308 ft 198 kts 230°
2026-04-26 19:04 46.08134 16.48937 6306 ft 198 kts 230°
2026-04-26 19:05 46.06329 16.45970 6305 ft 197 kts 230°
2026-04-26 19:05 46.05422 16.44478 6304 ft 197 kts 230°
2026-04-26 19:05 46.04517 16.42988 6304 ft 197 kts 230°
2026-04-26 19:06 46.03614 16.41501 6302 ft 197 kts 230°
2026-04-26 19:06 46.02713 16.40019 6299 ft 196 kts 230°
2026-04-26 19:06 46.01811 16.38535 6304 ft 196 kts 230°
2026-04-26 19:06 46.00913 16.37058 6305 ft 196 kts 230°
2026-04-26 19:07 46.00012 16.35579 6304 ft 196 kts 230°
2026-04-26 19:07 45.99122 16.34117 6304 ft 197 kts 230°
2026-04-26 19:07 45.98220 16.32637 6306 ft 197 kts 230°
2026-04-26 19:07 45.97316 16.31150 6306 ft 197 kts 230°
2026-04-26 19:08 45.96569 16.29527 6306 ft 195 kts 253°
2026-04-26 19:08 45.96338 16.27640 6304 ft 195 kts 262°
2026-04-26 19:08 45.96171 16.25663 6302 ft 195 kts 264°
2026-04-26 19:08 45.96029 16.23741 6303 ft 195 kts 264°
2026-04-26 19:09 45.95703 16.21862 6304 ft 195 kts 246°
2026-04-26 19:09 45.95126 16.20093 6304 ft 195 kts 244°
2026-04-26 19:09 45.94516 16.18351 6302 ft 195 kts 244°
2026-04-26 19:09 45.93891 16.16612 6306 ft 195 kts 243°
2026-04-26 19:10 45.93267 16.14899 6305 ft 196 kts 243°
2026-04-26 19:10 45.92635 16.13167 6308 ft 196 kts 243°
2026-04-26 19:10 45.91998 16.11428 6307 ft 197 kts 243°
2026-04-26 19:10 45.91359 16.09685 6303 ft 197 kts 243°
2026-04-26 19:11 45.90722 16.07949 6302 ft 196 kts 243°
2026-04-26 19:11 45.90084 16.06213 6306 ft 196 kts 243°
2026-04-26 19:11 45.89445 16.04477 6301 ft 196 kts 243°
2026-04-26 19:11 45.88816 16.02765 6307 ft 196 kts 243°
2026-04-26 19:12 45.88174 16.01024 6298 ft 195 kts 243°
2026-04-26 19:12 45.87540 15.99305 6302 ft 195 kts 243°
2026-04-26 19:12 45.86909 15.97586 6304 ft 195 kts 243°
2026-04-26 19:12 45.86276 15.95867 6304 ft 194 kts 243°
2026-04-26 19:13 45.85652 15.94171 6302 ft 194 kts 243°
2026-04-26 19:13 45.85018 15.92452 6306 ft 195 kts 243°
2026-04-26 19:13 45.84381 15.90726 6306 ft 195 kts 243°
2026-04-26 19:13 45.83743 15.89000 6306 ft 196 kts 243°
2026-04-26 19:14 45.83106 15.87278 6307 ft 196 kts 243°
2026-04-26 19:14 45.82465 15.85553 6308 ft 196 kts 243°
2026-04-26 19:14 45.81824 15.83824 6306 ft 196 kts 243°
2026-04-26 19:14 45.81616 15.83260 6305 ft 196 kts 243°
2026-04-26 19:15 45.80552 15.80383 6301 ft 196 kts 243°
2026-04-26 19:15 45.79914 15.78659 6301 ft 196 kts 243°
2026-04-26 19:15 45.79277 15.76936 6300 ft 195 kts 243°
2026-04-26 19:15 45.78640 15.75214 6308 ft 196 kts 243°
2026-04-26 19:16 45.78000 15.73484 6306 ft 196 kts 243°
2026-04-26 19:16 45.77360 15.71757 6304 ft 196 kts 243°
2026-04-26 19:16 45.76720 15.70035 6304 ft 196 kts 243°
2026-04-26 19:16 45.76077 15.68306 6300 ft 197 kts 243°
2026-04-26 19:17 45.75434 15.66574 6297 ft 197 kts 243°
2026-04-26 19:17 45.74798 15.64861 6282 ft 197 kts 243°
2026-04-26 19:17 45.74140 15.63152 6283 ft 195 kts 241°
2026-04-26 19:17 45.73468 15.61462 6289 ft 195 kts 241°
2026-04-26 19:18 45.72789 15.59774 6284 ft 195 kts 241°
2026-04-26 19:18 45.72111 15.58093 6283 ft 195 kts 240°
2026-04-26 19:18 45.71432 15.56415 6287 ft 195 kts 241°
2026-04-26 19:18 45.70753 15.54737 6290 ft 195 kts 241°
2026-04-26 19:19 45.70079 15.53079 6287 ft 195 kts 240°
2026-04-26 19:19 45.69397 15.51395 6292 ft 196 kts 240°
2026-04-26 19:19 45.68711 15.49702 6290 ft 196 kts 241°
2026-04-26 19:19 45.68026 15.48010 6287 ft 196 kts 240°
2026-04-26 19:20 45.67339 15.46316 6287 ft 197 kts 240°
2026-04-26 19:20 45.66885 15.45197 6286 ft 196 kts 241°
2026-04-26 19:20 45.65978 15.42959 6282 ft 196 kts 240°
2026-04-26 19:20 45.65294 15.41274 6286 ft 196 kts 240°
2026-04-26 19:21 45.64611 15.39590 6288 ft 195 kts 240°
2026-04-26 19:21 45.63936 15.37929 6288 ft 193 kts 240°
2026-04-26 19:21 45.63257 15.36257 6288 ft 194 kts 240°
2026-04-26 19:21 45.62577 15.34583 6288 ft 195 kts 240°
2026-04-26 19:22 45.61895 15.32903 6288 ft 195 kts 240°
2026-04-26 19:22 45.61210 15.31219 6290 ft 196 kts 240°
2026-04-26 19:22 45.60527 15.29557 6288 ft 196 kts 240°
2026-04-26 19:22 45.59828 15.27878 6287 ft 196 kts 240°
2026-04-26 19:23 45.59113 15.26215 6287 ft 196 kts 238°
2026-04-26 19:23 45.58330 15.24612 6291 ft 197 kts 234°
2026-04-26 19:23 45.57500 15.23058 6303 ft 196 kts 233°
2026-04-26 19:23 45.56670 15.21542 6308 ft 196 kts 233°
2026-04-26 19:24 45.55842 15.19995 6310 ft 196 kts 234°
2026-04-26 19:24 45.55031 15.18430 6311 ft 196 kts 234°
2026-04-26 19:24 45.53413 15.15298 6310 ft 196 kts 234°
2026-04-26 19:25 45.52591 15.13747 6310 ft 196 kts 233°
2026-04-26 19:25 45.52315 15.13231 6305 ft 196 kts 233°
2026-04-26 19:25 45.50946 15.10658 6313 ft 195 kts 234°
2026-04-26 19:25 45.50132 15.09101 6322 ft 196 kts 234°
2026-04-26 19:26 45.49318 15.07539 6317 ft 197 kts 234°
2026-04-26 19:26 45.48508 15.05991 6314 ft 197 kts 234°
2026-04-26 19:26 45.47683 15.04434 6310 ft 197 kts 234°
2026-04-26 19:26 45.46858 15.02881 6311 ft 196 kts 234°
2026-04-26 19:27 45.46038 15.01328 6310 ft 196 kts 234°
2026-04-26 19:27 45.45223 14.99775 6313 ft 196 kts 234°
2026-04-26 19:27 45.44406 14.98221 6316 ft 196 kts 234°
2026-04-26 19:27 45.43585 14.96666 6312 ft 196 kts 234°
2026-04-26 19:28 45.42763 14.95109 6313 ft 197 kts 234°
2026-04-26 19:28 45.42217 14.94076 6315 ft 197 kts 234°
2026-04-26 19:28 45.41393 14.92518 6319 ft 197 kts 234°
2026-04-26 19:28 45.40304 14.90456 6360 ft 196 kts 234°
2026-04-26 19:29 45.39748 14.89405 6358 ft 197 kts 234°
2026-04-26 19:29 45.38936 14.87865 6363 ft 196 kts 234°
2026-04-26 19:29 45.38117 14.86312 6365 ft 196 kts 234°
2026-04-26 19:29 45.37296 14.84764 6368 ft 196 kts 234°
2026-04-26 19:30 45.36473 14.83211 6366 ft 195 kts 234°
2026-04-26 19:30 45.35391 14.81165 6373 ft 195 kts 234°
2026-04-26 19:30 45.34849 14.80140 6374 ft 195 kts 234°
2026-04-26 19:30 45.34296 14.79096 6374 ft 195 kts 234°
2026-04-26 19:31 45.33215 14.77054 6368 ft 195 kts 234°
2026-04-26 19:31 45.32399 14.75511 6377 ft 195 kts 234°
2026-04-26 19:31 45.31582 14.73966 6379 ft 196 kts 234°
2026-04-26 19:31 45.30761 14.72420 6376 ft 196 kts 234°
2026-04-26 19:32 45.29938 14.70872 6372 ft 196 kts 234°
2026-04-26 19:32 45.29116 14.69323 6369 ft 195 kts 234°
2026-04-26 19:32 45.28309 14.67799 6375 ft 195 kts 234°
2026-04-26 19:32 45.27492 14.66255 6375 ft 196 kts 234°
2026-04-26 19:33 45.26671 14.64711 6370 ft 195 kts 234°
2026-04-26 19:33 45.25852 14.63170 6376 ft 196 kts 234°
2026-04-26 19:33 45.25030 14.61621 6374 ft 196 kts 234°
2026-04-26 19:33 45.24211 14.60079 6369 ft 196 kts 234°
2026-04-26 19:34 45.23390 14.58537 6366 ft 196 kts 234°
2026-04-26 19:34 45.22572 14.56997 6363 ft 195 kts 234°
2026-04-26 19:34 45.21752 14.55461 6373 ft 195 kts 233°
2026-04-26 19:34 45.20924 14.53923 6370 ft 196 kts 233°
2026-04-26 19:35 45.20107 14.52411 6372 ft 196 kts 233°
2026-04-26 19:35 45.19273 14.50871 6367 ft 195 kts 233°
2026-04-26 19:35 45.18447 14.49345 6371 ft 195 kts 233°
2026-04-26 19:35 45.17619 14.47819 6367 ft 195 kts 233°
2026-04-26 19:36 45.16791 14.46293 6373 ft 195 kts 233°
2026-04-26 19:36 45.16245 14.45284 6373 ft 195 kts 233°
2026-04-26 19:36 45.15138 14.43244 6372 ft 195 kts 233°
2026-04-26 19:36 45.14322 14.41741 6374 ft 195 kts 233°
2026-04-26 19:37 45.13492 14.40214 6374 ft 195 kts 233°
2026-04-26 19:37 45.12663 14.38689 6374 ft 195 kts 233°
2026-04-26 19:37 45.11834 14.37163 6366 ft 195 kts 233°
2026-04-26 19:37 45.11004 14.35637 6372 ft 195 kts 233°
2026-04-26 19:38 45.10174 14.34110 6374 ft 196 kts 233°
2026-04-26 19:38 45.09345 14.32581 6374 ft 196 kts 233°
2026-04-26 19:38 45.08514 14.31051 6375 ft 195 kts 233°
2026-04-26 19:38 45.07682 14.29521 6375 ft 196 kts 233°
2026-04-26 19:39 45.06860 14.28011 6370 ft 196 kts 233°
2026-04-26 19:39 45.06031 14.26485 6369 ft 194 kts 233°
2026-04-26 19:39 45.05269 14.25072 6382 ft 183 kts 233°
2026-04-26 19:39 45.04434 14.23652 6311 ft 196 kts 233°
2026-04-26 19:40 45.03637 14.22133 6050 ft 186 kts 234°
2026-04-26 19:40 45.02837 14.20743 5711 ft 187 kts 232°
2026-04-26 19:40 45.02052 14.19271 5604 ft 193 kts 235°
2026-04-26 19:40 45.01170 14.17684 5160 ft 208 kts 231°
2026-04-26 19:41 45.00257 14.16165 4415 ft 204 kts 228°
2026-04-26 19:41 44.99229 14.14608 3940 ft 224 kts 229°
2026-04-26 19:41 44.98174 14.12934 3466 ft 227 kts 230°
2026-04-26 19:41 44.97493 14.11810 3193 ft 226 kts 230°
2026-04-26 19:42 44.96136 14.09540 2581 ft 225 kts 230°
2026-04-26 19:42 44.95082 14.08110 2344 ft 203 kts 223°
2026-04-26 19:42 44.94106 14.06865 2047 ft 169 kts 226°
2026-04-26 19:42 44.93166 14.05892 1972 ft 167 kts 214°
2026-04-26 19:43 44.92293 14.05099 2121 ft 134 kts 223°
2026-04-26 19:43 44.91578 14.04347 1734 ft 133 kts 204°
2026-04-26 19:43 44.90776 14.03847 1848 ft 122 kts 216°
2026-04-26 19:43 44.90067 14.03208 1852 ft 120 kts 216°
2026-04-26 19:44 44.89576 14.02432 1789 ft 96 kts 249°
2026-04-26 19:44 44.89521 14.01518 1679 ft 98 kts 274°
2026-04-26 19:44 44.89555 14.00514 1618 ft 111 kts 268°
2026-04-26 19:44 44.89514 13.99371 1272 ft 124 kts 267°
2026-04-26 19:45 44.89495 13.98137 979 ft 124 kts 270°
2026-04-26 19:45 44.89454 13.96988 862 ft 113 kts 266°
2026-04-26 19:45 44.89432 13.95884 718 ft 112 kts 269°
2026-04-26 19:45 44.89408 13.94747 451 ft 118 kts 269°
2026-04-26 19:46 44.89384 13.93714 278 ft 96 kts 268°
2026-04-26 19:46 44.89368 13.92901 245 ft 60 kts 273°
2026-04-26 19:46 44.89366 13.92457 231 ft 51 kts 268°
2026-04-26 19:46 44.89352 13.92063 221 ft 33 kts 267°
2026-04-26 19:47 44.89389 13.91930 219 ft 10 kts 358°
2026-04-26 19:47 44.89453 13.91929 218 ft 14 kts 358°
2026-04-26 19:47 44.89568 13.91886 217 ft 22 kts 276°
2026-04-26 19:47 44.89563 13.91629 209 ft 17 kts 268°
2026-04-26 19:48 44.89628 13.91557 209 ft 13 kts 323°
2026-04-26 19:48 44.89654 13.91549 210 ft 8 kts 43°
2026-04-26 19:48 44.89656 13.91553 210 ft 0 kts 92°